Time,TemperatureF,DewpointF,PressureIn,WindDirection,WindDirectionDegrees,WindSpeedMPH,WindSpeedGustMPH,Humidity,HourlyPrecipIn,Conditions,Clouds,dailyrainin,SoftwareType,DateUTC
2013-09-07 00:00:00,64.0,48.0,-100.00,South,191,2.0,-999.0,54,0.00,,,-99.99,,2013-09-07 07:00:00,
2013-09-07 00:42:00,64.0,48.0,-100.00,South,191,2.0,-999.0,54,0.00,,,-99.99,,2013-09-07 07:42:00,
2013-09-07 00:52:00,64.0,48.0,-100.00,South,191,2.0,-999.0,54,0.00,,,-99.99,,2013-09-07 07:52:00,
2013-09-07 01:00:00,60.0,48.0,-100.00,South,170,4.0,-999.0,62,0.00,,,-99.99,,2013-09-07 08:00:00,
2013-09-07 01:43:00,60.0,48.0,-100.00,South,170,4.0,-999.0,62,0.00,,,-99.99,,2013-09-07 08:43:00,
2013-09-07 01:53:00,60.0,48.0,-100.00,South,170,4.0,-999.0,62,0.00,,,-99.99,,2013-09-07 08:53:00,
2013-09-07 02:00:00,60.0,47.0,-100.00,SSE,159,3.0,-999.0,62,0.00,,,-99.99,,2013-09-07 09:00:00,
2013-09-07 02:42:00,60.0,47.0,-100.00,SSE,159,3.0,-999.0,62,0.00,,,-99.99,,2013-09-07 09:42:00,
2013-09-07 02:52:00,60.0,47.0,-100.00,SSE,159,3.0,-999.0,62,0.00,,,-99.99,,2013-09-07 09:52:00,
2013-09-07 03:00:00,59.0,47.0,-100.00,South,172,2.0,-999.0,64,0.00,,,-99.99,,2013-09-07 10:00:00,
2013-09-07 03:41:00,59.0,47.0,-100.00,South,172,2.0,-999.0,64,0.00,,,-99.99,,2013-09-07 10:41:00,
2013-09-07 03:51:00,59.0,47.0,-100.00,South,172,2.0,-999.0,64,0.00,,,-99.99,,2013-09-07 10:51:00,
2013-09-07 04:00:00,58.0,47.0,-100.00,SSE,167,2.0,-999.0,65,0.00,,,-99.99,,2013-09-07 11:00:00,
2013-09-07 04:43:00,58.0,47.0,-100.00,SSE,167,2.0,-999.0,65,0.00,,,-99.99,,2013-09-07 11:43:00,
2013-09-07 04:52:00,58.0,47.0,-100.00,SSE,167,2.0,-999.0,65,0.00,,,-99.99,,2013-09-07 11:52:00,
2013-09-07 05:00:00,54.0,46.0,-100.00,South,173,3.0,-999.0,73,0.00,,,-99.99,,2013-09-07 12:00:00,
2013-09-07 05:42:00,54.0,46.0,-100.00,South,173,3.0,-999.0,73,0.00,,,-99.99,,2013-09-07 12:42:00,
2013-09-07 05:52:00,54.0,46.0,-100.00,South,173,3.0,-999.0,73,0.00,,,-99.99,,2013-09-07 12:52:00,
2013-09-07 06:00:00,55.0,46.0,-100.00,SSE,162,4.0,-999.0,72,0.00,,,-99.99,,2013-09-07 13:00:00,
2013-09-07 06:42:00,55.0,46.0,-100.00,SSE,162,4.0,-999.0,72,0.00,,,-99.99,,2013-09-07 13:42:00,
2013-09-07 06:52:00,55.0,46.0,-100.00,SSE,162,4.0,-999.0,72,0.00,,,-99.99,,2013-09-07 13:52:00,
2013-09-07 07:00:00,53.0,46.0,-100.00,SSE,165,3.0,-999.0,76,0.00,,,-99.99,,2013-09-07 14:00:00,
2013-09-07 07:42:00,53.0,46.0,-100.00,SSE,165,3.0,-999.0,76,0.00,,,-99.99,,2013-09-07 14:42:00,
2013-09-07 07:52:00,53.0,46.0,-100.00,SSE,165,3.0,-999.0,76,0.00,,,-99.99,,2013-09-07 14:52:00,
2013-09-07 08:00:00,54.0,46.0,-100.00,SSE,156,4.0,-999.0,74,0.00,,,-99.99,,2013-09-07 15:00:00,
2013-09-07 08:44:00,54.0,46.0,-100.00,SSE,156,4.0,-999.0,74,0.00,,,-99.99,,2013-09-07 15:44:00,
2013-09-07 08:54:00,54.0,46.0,-100.00,SSE,156,4.0,-999.0,74,0.00,,,-99.99,,2013-09-07 15:54:00,
2013-09-07 09:00:00,58.0,47.0,-100.00,South,174,3.0,-999.0,64,0.00,,,-99.99,,2013-09-07 16:00:00,
2013-09-07 09:43:00,58.0,47.0,-100.00,South,174,3.0,-999.0,64,0.00,,,-99.99,,2013-09-07 16:43:00,
2013-09-07 09:53:00,58.0,47.0,-100.00,South,174,3.0,-999.0,64,0.00,,,-99.99,,2013-09-07 16:53:00,
2013-09-07 10:00:00,66.0,48.0,-100.00,South,170,4.0,-999.0,51,0.00,,,-99.99,,2013-09-07 17:00:00,
2013-09-07 10:43:00,66.0,48.0,-100.00,South,170,4.0,-999.0,51,0.00,,,-99.99,,2013-09-07 17:43:00,
2013-09-07 10:52:00,66.0,48.0,-100.00,South,170,4.0,-999.0,51,0.00,,,-99.99,,2013-09-07 17:52:00,
2013-09-07 11:00:00,78.0,46.0,-100.00,South,170,2.0,-999.0,32,0.00,,,-99.99,,2013-09-07 18:00:00,
2013-09-07 11:52:00,78.0,46.0,-100.00,South,170,2.0,-999.0,32,0.00,,,-99.99,,2013-09-07 18:52:00,
2013-09-07 15:00:00,90.0,41.0,-100.00,SSW,195,7.0,-999.0,17,0.00,,,-99.99,,2013-09-07 22:00:00,
2013-09-07 15:53:00,90.0,41.0,-100.00,SSW,195,7.0,-999.0,17,0.00,,,-99.99,,2013-09-07 22:53:00,
2013-09-07 16:00:00,90.0,-99.9,-100.00,SW,224,1.0,-999.0,17,0.00,,,-99.99,,2013-09-07 23:00:00,
2013-09-07 16:53:00,90.0,-99.9,-100.00,SW,224,1.0,-999.0,17,0.00,,,-99.99,,2013-09-07 23:53:00,
2013-09-07 20:00:00,-999.0,-99.9,-100.00,NNE,20,1.0,-999.0,-999,-99.99,,,-99.99,,2013-09-08 03:00:00,
2013-09-07 22:00:00,70.0,41.0,-100.00,South,175,2.0,-999.0,35,0.00,,,-99.99,,2013-09-08 05:00:00,
2013-09-07 22:43:00,70.0,41.0,-100.00,South,175,2.0,-999.0,35,0.00,,,-99.99,,2013-09-08 05:43:00,
2013-09-07 22:52:00,70.0,41.0,-100.00,South,175,2.0,-999.0,35,0.00,,,-99.99,,2013-09-08 05:52:00,
2013-09-07 23:00:00,68.0,41.0,-100.00,SSE,157,3.0,-999.0,37,0.00,,,-99.99,,2013-09-08 06:00:00,
2013-09-07 23:53:00,68.0,41.0,-100.00,SSE,157,3.0,-999.0,37,0.00,,,-99.99,,2013-09-08 06:53:00,